Volver al catálogo

PADRE

ActivoCienciaSSO
NORAD 64559·PAYLOAD·🇧🇬 Bulgaria

Lanzado Jun 23, 2025 desde Vandenberg Space Force Base

Loading…

Próximos Pases (próximas 24 horas)

TLE

ActualizadoSource: Space-Track

Época: Sep 14, 2026, 02:30 UTC

1 64559U 25135AH  26257.10457535  .00001072  00000-0  10930-3 0  9993
2 64559  97.7792   9.6683 0001581  19.3464 340.7815 14.92726917 67117

Sigue PADRE en tiempo real con AllMySat

Download on the App Store